Wind_Speed
18 19 22 26 28 27 25 23 21 19 21 22 21 20 20 18 19 18 13 10 12 10 5 7 12 15 13 12 12 13 14 14 13 12 15 36 47 48 48 46 42 42 41 40 40 39 38 38 37 36 36 34 34 33 33 33 32 32 33 32 32 32 32 32 32 32 32 32 32 32 32 31 30 29 29 28 28 27 27 26 25 25 24 23 23 22 22
18 18 19 22 25 28 29 28 25 23 22 22 22 22 21 21 21 19 15 13 14 13 9 8 12 16 15 12 11 13 15 17 16 11 12 31 50 50 48 47 43 43 43 41 41 40 39 38 38 37 36 35 35 35 34 34 33 33 33 32 32 32 32 33 33 33 33 33 32 32 33 32 32 31 30 29 29 29 29 28 27 26 26 25 25 25 25
17 18 19 21 23 25 28 30 30 28 26 24 24 23 22 23 23 20 18 18 17 16 14 13 13 16 15 12 10 11 13 17 19 13 12 22 47 52 48 48 46 44 44 43 42 41 41 40 39 38 37 36 35 35 34 33 32 32 32 32 33 32 32 33 34 33 32 32 31 31 31 31 31 31 31 30 30 30 30 30 29 28 28 27 28 28 27
18 18 18 20 23 23 25 28 30 31 30 29 27 24 23 23 24 22 21 22 20 18 18 17 16 15 15 14 12 11 10 11 14 12 9 11 36 49 47 46 47 46 45 44 43 42 42 41 40 39 37 36 35 34 32 31 30 30 30 30 30 29 30 31 32 31 30 29 29 28 27 28 30 31 31 30 31 31 31 31 31 30 30 29 30 30 29
19 20 19 20 22 22 24 26 28 29 32 32 30 27 25 24 24 23 24 24 22 20 21 21 19 17 17 17 14 12 12 10 10 11 8 5 21 41 46 45 46 47 47 45 44 44 43 41 40 38 36 35 34 32 31 29 28 28 28 27 27 27 27 28 29 29 29 28 27 26 27 28 30 31 30 29 29 30 32 32 33 33 32 31 31 31 30
19 20 20 21 21 22 24 25 25 26 28 31 31 30 28 26 25 26 25 24 22 20 22 24 21 18 18 19 17 13 12 12 11 10 10 7 10 26 41 48 49 48 47 46 45 45 44 42 40 38 36 35 34 33 32 30 29 29 29 29 28 29 30 30 30 31 32 31 29 28 29 30 30 31 31 29 29 30 32 33 32 32 32 32 32 32 31
19 20 20 20 21 22 24 24 24 25 25 27 29 30 30 28 27 27 26 25 23 20 22 25 23 19 19 21 21 16 13 16 15 10 10 12 11 14 27 43 51 51 48 49 49 48 46 43 41 39 37 36 35 35 34 34 33 33 33 32 32 32 33 33 33 34 34 34 32 31 31 31 32 33 33 33 31 31 31 32 32 30 30 32 33 33 32
19 19 18 18 19 21 22 23 24 24 23 24 26 27 29 29 28 28 27 26 23 20 21 25 25 22 22 23 23 19 15 17 19 14 11 13 12 8 14 29 47 55 52 49 48 45 43 41 41 41 40 39 38 37 36 36 35 35 34 33 33 33 33 34 35 36 37 38 37 34 34 34 35 35 35 36 36 34 32 32 32 31 29 30 32 33 33
17 17 16 16 16 17 20 21 23 23 22 22 23 24 26 29 29 29 29 27 25 21 20 25 27 25 25 25 24 22 19 18 19 17 14 13 11 9 9 15 30 44 46 42 42 43 44 44 43 41 40 39 38 37 36 35 35 35 34 34 34 35 35 35 36 36 38 41 42 40 39 38 38 37 37 39 41 40 37 36 35 33 32 31 32 33 33
16 16 16 14 14 15 18 20 20 20 20 20 20 21 23 26 28 28 29 28 27 24 21 23 27 28 27 27 26 24 22 21 19 17 16 14 13 14 12 11 17 25 29 28 29 31 35 41 45 45 44 42 39 38 37 36 36 36 35 33 33 33 34 34 35 36 38 40 43 45 45 42 41 42 42 44 45 44 42 40 37 36 35 35 35 35 34
16 16 16 14 14 16 17 17 17 18 18 19 19 19 21 23 25 26 28 28 27 26 24 24 27 28 28 28 29 26 24 24 23 19 16 14 14 15 15 14 16 17 18 17 16 16 19 23 29 36 40 40 39 37 35 34 33 31 30 28 27 27 28 30 33 35 37 38 40 44 46 46 46 47 46 46 46 45 44 42 38 37 37 38 39 38 35
17 17 17 16 16 16 16 16 16 17 17 17 18 19 20 21 23 25 27 27 27 26 26 26 26 27 28 28 29 28 26 27 26 23 17 14 14 15 15 16 18 18 17 15 14 14 15 15 16 20 24 27 29 28 27 27 26 24 23 22 21 19 18 22 25 28 31 36 38 39 41 44 48 49 49 50 49 47 44 41 38 38 40 40 40 39 36
18 17 16 16 17 17 17 17 17 16 16 16 18 20 20 19 21 24 26 26 27 26 26 27 26 25 25 27 28 27 27 28 28 25 20 16 15 16 16 16 17 19 18 16 14 14 16 16 16 17 18 20 21 21 21 21 21 20 19 18 18 14 10 11 16 20 24 30 35 39 43 46 49 50 50 51 51 47 44 41 40 41 42 42 41 39 37
17 17 17 17 17 18 18 19 18 17 17 18 19 21 21 20 21 23 24 26 26 27 27 27 26 24 22 23 25 26 27 28 28 27 22 18 17 19 18 17 17 17 16 15 14 13 14 15 16 18 19 20 20 20 20 18 17 17 17 17 18 17 13 13 17 20 21 22 25 30 34 37 40 44 46 47 46 42 41 42 43 44 42 40 40 39 38
18 18 18 18 18 18 19 21 20 19 19 20 20 20 20 21 22 24 25 26 27 27 28 28 27 24 21 19 21 23 25 25 26 26 24 19 16 18 20 20 18 16 14 13 12 10 11 14 15 16 18 20 21 21 21 20 19 18 18 17 17 18 17 16 17 17 16 14 13 14 16 17 20 27 35 42 44 42 40 40 41 42 41 39 38 38 38
18 18 18 19 19 19 20 21 21 21 22 21 21 22 22 23 24 25 26 26 27 27 28 29 28 26 22 19 19 21 23 22 22 22 23 19 14 13 17 19 18 15 13 12 12 11 11 13 14 15 17 18 19 19 19 20 20 21 21 20 20 19 18 17 17 16 14 12 9 8 9 10 10 10 14 22 28 30 31 30 29 30 32 32 33 35 35
18 18 19 19 19 20 21 21 21 22 23 22 22 23 24 24 25 25 26 27 28 28 29 30 29 28 25 20 19 20 22 21 19 19 20 20 17 12 12 13 13 12 11 10 11 13 13 14 15 16 16 16 15 15 17 18 19 21 21 22 23 22 20 20 20 19 17 14 10 8 9 10 9 7 6 8 10 13 16 17 17 17 18 19 22 26 26
19 19 19 19 19 20 21 22 22 23 23 23 23 23 24 25 26 26 26 27 29 30 30 30 30 30 28 23 19 21 23 21 19 17 18 20 20 15 11 9 9 8 8 8 9 12 13 13 14 14 15 15 14 13 15 17 18 19 20 20 22 22 21 22 23 24 23 19 15 13 13 12 10 9 10 11 11 13 15 17 16 17 20 21 22 23 22
20 19 18 19 19 19 20 21 23 24 25 25 25 24 25 26 27 28 28 29 30 31 31 32 32 31 29 25 21 22 23 23 19 16 16 18 19 17 14 12 11 10 9 8 8 8 10 12 13 13 13 15 14 13 14 16 18 19 19 19 20 21 21 21 22 24 25 22 18 16 17 16 15 15 15 17 18 19 21 21 21 22 24 25 25 24 23
20 19 18 18 18 19 19 20 22 24 25 26 26 26 26 27 28 29 29 30 31 32 33 34 34 32 30 29 27 25 25 25 23 19 17 17 17 17 16 15 15 14 13 12 12 10 10 11 13 13 14 14 15 15 15 15 16 17 18 18 20 21 22 22 23 24 24 23 21 20 19 19 19 19 19 20 21 22 23 24 24 25 26 26 26 26 26
18 18 17 17 18 18 19 19 21 23 24 25 26 27 27 28 29 29 30 31 32 33 33 34 34 33 31 31 30 27 27 27 26 23 21 19 19 19 18 17 17 17 16 16 16 15 15 14 14 15 14 14 15 16 16 16 15 15 15 16 17 19 21 22 23 24 24 24 23 23 22 21 22 22 22 23 24 25 26 26 27 28 28 28 29 30 30
18 18 17 17 17 18 18 18 20 21 21 22 24 25 27 28 29 30 30 32 33 34 35 36 35 34 33 33 32 29 28 28 27 25 24 22 20 21 21 20 19 19 18 18 18 18 18 17 16 16 16 15 16 16 17 18 18 18 19 19 19 20 21 22 23 24 24 25 25 25 24 24 24 25 26 26 27 28 29 29 30 30 31 31 32 32 33
18 17 17 16 17 17 18 18 18 19 20 21 22 23 25 27 29 30 31 33 34 35 36 36 35 34 34 34 34 33 32 31 29 27 25 24 22 22 23 23 22 20 19 19 19 19 18 18 18 18 17 17 17 17 18 19 20 21 22 23 23 23 23 23 24 24 25 25 26 26 26 27 26 27 27 28 29 30 31 31 32 33 33 34 35 35 36
18 17 16 16 16 17 18 17 17 18 20 21 22 23 24 26 28 29 31 33 34 34 33 33 33 32 32 33 34 33 33 34 33 30 27 26 25 25 24 23 22 21 20 20 20 19 19 19 19 19 19 19 18 19 20 21 22 23 24 24 25 25 26 25 26 26 26 27 28 28 29 29 30 30 31 31 32 33 33 34 35 36 37 37 38 39 39
17 16 15 15 15 16 16 16 15 17 20 21 20 20 21 24 27 28 30 31 31 31 31 32 31 30 31 33 34 34 34 34 33 31 29 28 28 26 25 23 21 21 21 21 21 21 20 20 20 20 20 20 20 21 21 22 23 24 25 26 26 26 27 28 28 28 29 29 30 31 31 32 33 34 34 34 34 35 35 36 37 38 39 39 40 41 42
16 14 14 14 14 15 15 14 14 16 18 18 17 15 17 22 25 26 27 28 27 27 28 29 29 29 30 32 33 34 35 35 33 30 29 29 30 29 27 24 23 23 23 22 22 21 20 19 19 20 20 20 21 21 22 23 24 24 25 25 26 27 27 28 28 29 29 30 30 31 32 32 33 34 34 35 35 36 36 37 37 38 39 40 41 42 43
15 13 13 13 13 14 14 13 12 12 12 13 15 14 15 20 22 23 24 26 25 24 26 28 30 30 30 31 32 34 35 35 33 31 29 29 29 29 27 25 23 23 23 23 22 22 21 20 20 20 20 20 20 21 21 22 22 23 23 24 24 25 26 26 27 27 28 29 29 30 31 32 32 33 33 34 35 36 37 37 38 38 39 40 41 42 43
14 12 12 12 11 12 12 11 10 9 7 10 16 16 16 18 21 22 23 24 25 25 25 29 34 36 35 33 34 38 40 37 34 32 29 28 27 26 25 24 22 22 22 22 22 22 22 21 20 19 18 18 18 18 18 19 20 20 21 22 22 23 24 24 25 26 27 27 28 29 30 31 32 33 34 35 36 37 38 39 40 41 41 42 43 45 46
14 13 12 10 9 9 9 8 8 9 7 4 12 16 16 18 20 21 21 22 26 29 29 27 28 31 33 31 32 36 39 37 34 30 27 25 24 23 22 21 21 21 21 21 21 20 20 19 19 18 17 17 16 16 17 18 18 19 20 21 21 22 23 24 24 25 26 27 28 28 30 31 32 33 35 36 38 39 40 42 43 44 45 46 47 48 49
16 14 12 10 9 8 7 5 5 5 6 3 4 11 14 16 18 20 21 23 25 27 24 18 15 18 20 20 22 27 29 31 30 28 26 24 23 21 20 20 19 19 19 18 18 17 17 17 17 17 17 17 17 18 18 19 19 20 20 21 21 22 22 23 25 26 27 28 29 30 32 33 35 36 38 39 40 42 43 45 46 47 49 50 50 51 52
18 16 13 11 9 8 8 5 3 2 4 4 2 5 12 16 18 20 22 24 24 23 19 15 12 12 14 17 21 25 26 27 28 27 26 25 23 21 19 18 17 16 16 15 15 15 15 15 16 16 17 17 18 19 20 20 21 21 21 22 23 24 25 26 27 29 30 31 33 34 35 36 37 39 40 41 43 44 45 47 48 49 51 52 54 55 56
18 16 13 11 10 9 8 6 2 0 2 3 4 4 9 15 19 21 23 24 25 24 21 18 16 16 18 20 23 25 26 26 25 24 23 21 19 17 15 14 14 14 14 14 14 14 15 15 16 16 17 17 18 19 19 20 21 22 23 24 26 27 29 30 32 33 34 35 36 37 38 39 40 41 42 43 44 45 47 48 49 50 52 53 55 57 58
18 15 14 13 12 11 9 6 4 2 2 1 3 5 6 9 13 15 17 17 16 14 13 13 14 16 18 19 20 20 20 19 18 17 16 14 13 13 13 13 13 13 14 14 14 15 15 15 16 16 17 17 18 19 20 21 23 24 26 27 29 30 32 33 34 35 37 38 39 40 41 42 42 43 44 45 46 47 48 50 51 52 54 55 57 58 59
18 16 16 15 13 11 9 8 7 6 6 5 4 3 4 6 8 10 11 12 13 13 12 11 11 12 13 14 14 14 14 14 13 12 11 11 11 11 12 13 13 14 14 15 15 15 15 15 16 16 17 18 20 21 22 24 26 27 28 29 30 31 32 34 35 36 38 39 40 41 42 43 43 44 45 47 48 49 51 52 53 55 56 57 59 60 62
20 19 19 17 13 11 11 10 10 9 9 8 7 6 5 4 4 5 7 8 9 9 9 9 9 9 9 9 9 9 9 10 10 9 10 11 11 12 13 13 14 14 15 15 15 15 15 16 17 18 19 20 22 23 25 26 27 28 29 31 32 33 34 36 37 38 39 40 41 42 42 44 45 46 47 48 50 51 52 54 55 57 58 60 61 63 65
24 22 20 17 15 13 13 13 11 10 9 9 9 9 8 7 6 5 5 5 6 7 7 7 7 8 8 8 9 9 9 9 10 10 11 12 12 13 13 14 14 14 14 15 15 15 16 17 18 19 21 22 23 24 26 27 28 30 31 33 34 35 37 38 39 39 40 41 41 43 44 45 47 48 49 50 52 53 55 56 57 59 60 62 63 65 66
26 23 21 18 16 15 15 14 13 12 10 10 9 9 9 9 8 8 8 8 9 9 9 9 10 10 10 10 11 11 11 11 11 12 12 13 13 14 14 14 14 14 14 15 15 16 17 18 19 20 22 23 25 26 27 29 30 32 33 34 35 36 38 38 39 40 41 42 44 45 46 48 49 50 52 53 54 55 57 58 59 60 61 63 63 64 65
26 23 21 20 18 17 16 16 14 13 12 11 10 9 9 9 9 10 10 10 11 11 11 12 12 12 12 12 12 12 12 12 12 13 13 14 14 14 14 14 14 14 15 16 16 17 18 19 21 22 24 25 27 28 30 31 32 33 34 35 36 38 39 40 41 42 44 45 46 48 49 50 52 53 54 55 56 57 58 59 60 60 61 61 61 61 61
27 25 23 22 20 18 18 17 16 14 13 12 11 10 10 9 10 10 11 11 12 12 13 13 13 14 14 13 13 13 13 13 13 14 14 14 14 14 14 15 15 16 16 17 17 18 19 21 22 24 26 27 29 30 31 32 33 34 35 36 38 39 40 42 43 45 46 47 49 50 52 53 54 55 56 56 57 58 59 60 60 60 59 59 59 58 58
29 27 25 24 22 21 20 19 17 16 15 13 12 12 11 11 11 11 12 12 13 13 14 14 15 15 15 15 14 14 14 14 14 15 15 15 15 16 16 16 17 17 18 18 19 20 21 23 24 26 27 29 30 31 32 33 34 35 36 37 39 40 42 43 45 47 48 50 51 53 54 55 55 56 56 58 59 59 60 60 59 59 58 58 57 56 56
31 29 27 25 24 22 21 19 18 17 16 14 14 13 13 12 13 13 13 13 14 14 15 16 16 16 16 16 16 16 15 16 16 16 16 17 17 17 18 18 18 18 19 20 21 22 24 25 26 28 29 30 31 32 32 33 34 35 37 38 40 42 44 45 47 49 51 52 53 54 54 54 55 56 57 58 58 58 58 58 58 57 57 56 55 55 55
31 29 27 26 24 22 20 19 18 16 16 15 15 14 14 14 14 14 15 15 15 16 17 17 18 18 18 18 17 17 17 17 17 17 18 18 18 18 18 19 19 20 21 22 23 24 25 27 28 30 31 31 32 33 33 34 35 37 38 40 42 44 46 48 49 51 52 53 53 53 54 54 55 56 57 57 57 57 56 56 55 55 55 54 54 54 55
31 29 27 25 23 21 20 18 17 16 15 15 15 14 14 15 15 16 16 17 17 17 18 18 19 19 19 19 18 18 18 18 18 19 19 19 19 19 19 20 20 21 22 23 24 26 27 29 30 31 31 32 33 33 34 35 36 38 40 42 44 46 48 49 51 51 52 52 53 53 54 55 55 56 55 55 55 55 54 54 54 53 53 53 53 53 53
30 28 27 25 23 21 19 18 17 16 16 15 15 15 15 16 16 17 18 18 19 19 19 20 20 20 20 19 19 19 19 19 19 20 20 20 20 20 20 21 22 23 24 24 26 28 29 30 31 31 32 33 33 34 35 36 37 39 41 44 46 47 49 50 51 51 52 52 52 53 54 54 54 54 54 54 54 54 53 53 53 53 52 52 52 52 52
29 27 26 24 23 21 19 18 18 17 17 16 16 16 16 17 18 18 19 19 20 20 20 21 21 20 20 20 20 20 20 21 21 21 21 21 21 21 22 22 23 24 25 26 28 29 30 31 32 32 33 33 34 34 35 36 37 40 43 45 46 48 49 50 50 51 51 51 52 52 53 53 53 53 53 53 53 53 53 53 53 52 52 51 50 50 50
27 25 24 23 22 21 20 20 19 18 17 17 17 17 18 19 20 20 20 21 21 21 21 21 21 21 21 21 22 22 22 22 22 22 22 22 22 23 23 24 25 26 27 29 30 30 31 32 33 33 34 34 34 34 35 36 39 41 44 45 47 48 49 49 50 50 50 50 51 51 51 52 52 52 52 52 52 52 52 52 52 50 49 48 48 48 47
26 25 24 23 22 21 21 21 20 19 18 18 19 20 20 21 21 21 21 22 22 22 22 22 22 22 22 23 23 23 23 23 23 23 23 24 24 24 25 25 27 28 29 30 31 31 32 33 34 34 34 35 34 34 35 37 40 42 44 46 47 48 48 48 49 49 49 49 50 50 51 51 51 52 52 52 52 52 52 51 49 47 45 45 45 45 44
25 25 24 23 22 22 21 20 19 19 20 20 21 22 22 22 22 22 22 22 22 22 22 22 23 23 23 24 24 24 24 24 24 25 25 25 25 26 26 27 28 30 30 31 32 33 33 34 34 34 35 35 34 34 36 38 40 42 44 45 46 47 47 47 47 47 48 49 49 49 50 50 51 51 52 52 52 52 50 48 45 43 42 42 42 41 41
24 23 22 22 21 20 20 20 20 21 21 22 22 22 23 23 23 22 22 22 23 23 23 23 23 23 24 24 24 24 25 25 26 26 26 26 26 27 28 29 30 31 31 32 33 33 34 34 35 35 35 35 35 35 36 38 40 42 44 44 45 45 45 45 46 46 47 48 48 49 49 50 50 51 52 52 51 49 47 43 41 40 40 39 39 38 38
21 21 20 20 20 20 21 21 21 21 21 21 22 22 22 22 22 22 22 23 23 23 23 23 23 23 24 24 24 25 26 26 27 27 27 27 28 29 30 31 32 32 32 33 33 34 34 35 35 36 36 36 36 36 37 39 40 42 43 43 43 44 44 44 45 46 46 47 47 48 48 49 50 51 51 50 47 44 41 40 39 38 38 36 35 35 36
20 20 20 20 21 22 22 22 21 20 20 21 21 21 21 22 22 22 22 22 22 22 23 23 23 24 24 25 26 26 27 28 28 28 29 29 30 31 32 32 32 32 33 33 34 34 35 35 36 37 37 37 37 37 38 39 40 41 42 42 42 42 42 43 44 45 45 46 46 47 48 49 50 50 48 44 41 38 37 37 37 36 35 33 33 33 34
19 19 19 20 20 21 21 20 19 19 20 20 20 21 21 21 21 21 21 22 22 22 23 23 24 25 25 26 27 28 28 29 29 30 31 32 32 33 33 33 33 33 33 34 34 34 35 36 36 37 38 38 38 38 39 39 40 40 40 40 41 41 42 42 43 44 45 45 46 47 48 49 49 46 42 37 35 34 34 34 33 32 31 31 32 32 32
Wind_Direction
260 257 256 256 258 257 252 248 246 241 238 237 236 240 243 239 236 240 239 223 229 243 229 233 261 260 251 256 257 256 256 246 257 287 244 216 213 212 210 208 207 206 207 209 212 213 215 217 219 220 220 219 219 221 223 224 225 227 229 231 232 234 235 236 237 238 239 239 239 240 241 241 240 240 240 242 243 245 246 246 246 247 249 250 252 255 257
262 259 258 257 257 259 257 254 253 249 245 243 240 238 240 238 237 239 235 226 228 238 237 240 260 265 260 258 258 259 260 248 246 287 275 222 212 208 207 207 208 207 207 209 211 213 216 218 220 221 220 220 220 221 223 224 225 227 229 231 232 234 236 238 239 241 242 244 245 245 246 248 247 246 244 243 244 245 246 247 248 249 252 255 257 258 258
266 262 260 258 256 255 256 256 256 253 250 249 249 244 239 239 239 236 233 230 227 228 232 233 246 262 263 256 255 261 268 256 243 267 301 230 212 208 206 206 207 207 208 210 211 213 215 217 220 221 221 221 222 222 223 223 223 225 227 230 232 234 236 239 241 243 245 247 249 250 251 253 255 255 253 250 248 248 248 249 250 251 252 255 258 258 258
267 264 261 260 258 256 256 254 254 253 251 250 250 248 244 242 240 236 234 233 230 227 228 228 232 246 256 259 260 257 264 262 241 250 303 243 214 213 212 209 208 207 209 211 213 213 215 217 219 220 221 222 223 224 224 222 221 223 226 230 233 235 237 241 243 245 245 246 248 249 249 250 252 255 258 258 255 252 252 252 252 252 252 253 255 256 257
265 266 264 262 260 258 256 252 249 250 250 249 248 247 247 245 241 239 239 238 236 232 229 231 230 230 242 257 263 254 251 254 242 243 283 278 217 215 216 215 212 210 210 212 214 215 216 218 220 220 220 222 223 225 227 226 226 227 229 232 236 239 241 242 244 246 246 245 246 247 247 247 247 248 251 255 257 254 252 251 251 252 252 252 253 255 256
266 269 268 265 263 258 254 250 248 248 248 248 246 245 246 245 243 245 248 247 246 238 230 233 235 228 232 248 255 256 248 235 228 242 260 267 225 214 216 216 214 213 213 213 215 218 217 217 219 220 220 222 224 227 230 232 234 235 236 237 239 241 243 244 244 246 246 246 246 246 247 249 251 249 248 249 251 250 248 247 247 250 253 254 254 254 255
269 271 271 269 264 257 253 250 248 249 248 247 245 244 244 244 244 248 250 249 249 243 230 231 236 231 232 243 250 256 246 218 214 237 252 239 227 211 211 213 212 212 213 213 214 217 218 217 218 220 220 222 223 226 228 231 234 236 237 239 241 244 247 249 248 248 248 249 249 248 248 251 253 254 252 251 250 250 250 248 246 246 251 255 256 255 254
269 271 272 270 264 257 253 250 247 247 248 247 245 243 241 242 243 246 249 247 246 244 233 228 230 231 234 242 249 254 247 222 220 235 241 228 226 213 198 203 207 209 212 214 214 217 219 218 219 220 221 222 224 226 228 231 234 237 240 244 249 251 253 253 253 251 249 250 250 251 250 250 253 254 254 254 254 252 252 252 250 247 247 250 254 254 253
269 272 271 269 267 259 253 248 245 244 246 247 245 242 239 239 239 240 245 246 244 243 237 228 226 228 233 241 248 252 249 237 231 233 230 226 231 228 196 183 194 203 209 213 215 218 221 221 222 223 224 224 226 229 231 235 239 243 248 251 253 254 254 253 252 250 249 248 249 250 250 251 253 253 251 254 256 253 251 252 252 250 248 249 253 253 251
267 271 270 267 267 260 252 246 243 241 244 247 246 244 239 236 235 236 240 244 243 243 240 232 227 227 231 239 247 251 251 246 238 234 233 233 236 232 215 179 174 187 195 199 204 209 213 216 220 223 225 227 228 230 234 239 242 246 248 250 251 253 253 252 251 249 248 248 247 247 247 247 248 249 248 250 253 252 250 251 251 250 251 253 254 252 249
262 264 266 265 261 256 251 247 244 242 243 246 246 245 241 236 234 235 238 241 242 240 239 235 231 228 229 238 246 249 253 252 246 238 235 234 235 234 225 203 185 182 183 183 187 191 192 198 206 212 217 220 223 225 228 232 235 238 241 243 245 249 251 252 252 250 249 247 246 246 246 244 244 246 247 248 250 250 250 251 251 248 248 251 252 250 248
261 263 264 262 257 256 254 250 247 243 242 244 245 245 243 238 234 235 236 238 240 239 236 236 234 230 230 238 245 248 252 256 253 245 240 238 235 234 231 216 198 186 182 184 190 194 192 189 192 198 204 207 210 213 216 219 222 226 230 232 232 240 250 250 246 249 251 249 245 243 243 243 243 245 246 246 247 248 248 251 254 250 246 247 248 248 248
260 263 264 262 258 257 255 252 249 246 243 244 244 242 241 239 236 235 235 236 237 238 236 236 237 235 233 237 244 248 252 257 256 250 247 252 244 234 239 235 210 186 180 188 195 197 195 194 198 202 205 206 207 210 214 217 222 224 227 226 222 226 248 251 242 249 257 254 245 239 238 239 241 242 243 243 246 247 247 249 253 251 250 249 248 247 248
254 257 260 262 259 257 255 254 252 249 245 245 244 243 241 238 236 235 233 233 235 236 236 237 239 240 237 236 243 250 253 256 259 255 253 260 252 236 237 241 221 196 189 198 205 203 200 200 204 209 213 215 216 218 219 220 221 222 225 226 222 222 233 249 253 257 261 260 252 244 241 242 242 241 239 240 242 245 247 249 252 252 252 251 248 247 249
248 251 256 261 262 260 257 255 253 250 248 247 247 248 245 241 238 235 232 231 231 233 235 237 239 241 239 236 240 249 253 256 260 259 258 262 258 240 235 235 226 213 208 211 213 215 215 213 213 215 218 221 223 224 224 224 225 227 228 229 230 232 237 243 247 249 252 258 259 247 242 246 245 241 241 243 244 245 247 251 252 251 250 250 250 250 251
246 249 254 259 262 261 258 256 254 252 250 248 248 249 248 244 240 237 234 231 230 231 234 236 237 238 239 235 233 241 250 255 257 259 257 254 255 247 236 232 230 229 231 229 228 234 236 230 227 225 221 219 222 227 231 234 238 243 243 241 243 248 249 245 244 246 250 256 254 238 238 248 247 241 243 242 239 239 241 245 249 250 250 252 253 251 249
246 249 255 257 258 259 259 257 256 255 253 252 250 249 248 246 243 239 234 231 229 228 229 232 234 235 235 234 228 232 243 249 252 254 250 244 246 252 245 235 234 240 249 249 243 245 250 250 251 252 244 238 240 245 248 253 256 257 254 252 252 252 250 247 250 257 261 259 245 226 231 242 240 240 252 241 226 232 244 248 250 250 246 245 248 247 245
248 251 256 258 258 259 259 258 257 257 256 254 252 250 249 247 244 239 233 228 226 223 221 224 229 230 229 228 224 226 235 243 245 245 243 240 243 252 253 242 230 230 242 251 245 246 254 260 264 267 263 258 260 261 256 256 257 256 255 253 253 253 250 246 250 257 260 256 244 231 234 243 241 237 244 244 232 232 241 243 241 237 235 238 247 252 251
251 254 259 262 262 261 259 258 257 256 255 255 253 252 249 246 244 240 233 226 224 222 217 217 222 224 224 223 220 220 227 236 241 240 239 239 243 248 249 243 233 228 237 251 253 252 256 257 256 258 257 255 255 257 255 252 250 251 252 251 251 251 249 245 245 249 251 250 246 243 244 249 249 242 238 239 237 233 234 237 239 240 242 248 256 260 260
252 258 264 266 266 264 261 258 256 254 254 254 254 252 250 245 241 238 232 226 222 221 218 216 219 222 223 221 218 213 215 224 233 235 233 233 236 240 241 241 238 235 237 246 255 260 258 254 252 252 253 253 251 251 254 255 253 252 252 252 251 249 248 245 243 244 247 250 253 256 256 255 254 251 246 246 247 246 246 248 251 252 253 255 259 261 262
253 260 266 269 270 268 263 259 258 257 256 254 253 251 248 243 237 233 230 225 221 219 217 217 219 223 222 218 216 215 214 218 225 228 227 225 227 231 234 237 239 239 239 242 248 255 257 257 256 254 253 252 250 249 251 256 258 256 255 254 253 252 252 253 253 254 257 261 263 263 263 259 257 257 256 255 256 257 258 259 261 262 263 263 264 264 265
252 258 265 271 272 270 266 263 262 260 258 256 253 249 245 240 235 230 226 221 218 217 215 214 216 220 219 216 217 220 221 219 220 221 222 222 222 225 230 234 238 241 243 244 245 249 253 257 259 258 255 252 250 249 250 252 254 255 256 258 259 259 259 260 261 263 266 269 270 271 270 268 266 265 265 264 264 264 265 265 266 267 268 268 268 268 267
247 255 265 272 271 269 268 266 264 262 262 261 257 251 245 238 231 226 223 219 217 216 215 215 215 217 218 217 219 221 221 221 221 223 227 230 230 229 229 233 238 241 244 246 247 247 249 253 257 258 256 254 251 249 248 250 252 253 255 257 259 261 262 262 263 264 266 269 271 272 273 272 271 270 268 268 268 268 269 269 269 270 271 271 272 272 271
245 256 267 271 270 269 269 268 266 268 271 268 261 251 241 234 230 226 221 217 214 214 216 218 218 219 219 220 222 223 224 226 227 228 232 235 235 234 232 233 237 241 245 250 252 250 247 247 250 252 252 251 251 249 248 249 250 252 253 255 256 257 259 260 260 262 262 263 265 267 268 269 270 271 271 271 271 271 271 272 272 273 274 274 275 275 276
244 256 266 269 270 270 270 269 270 274 275 271 263 248 234 229 227 223 220 218 214 213 214 215 217 221 222 221 221 223 225 228 229 229 230 233 234 236 237 238 242 246 250 253 254 250 247 245 246 247 248 249 250 251 251 251 252 253 254 255 257 258 259 260 262 263 264 265 266 268 269 270 272 274 275 276 276 276 276 275 276 276 277 277 278 278 279
242 253 263 268 269 271 272 272 276 280 275 263 251 236 223 219 219 220 220 216 210 207 211 216 219 225 226 223 222 223 225 228 230 229 230 233 236 238 240 242 245 249 251 251 250 248 247 247 246 245 246 247 248 250 252 254 256 257 258 260 261 263 264 266 267 268 269 271 272 274 275 275 276 277 278 279 281 281 282 281 281 281 281 281 281 281 281
238 247 256 262 267 271 274 276 283 291 279 249 230 222 212 206 208 213 214 210 207 212 216 211 205 206 211 217 223 226 224 224 226 228 230 232 233 235 237 240 244 246 246 245 246 246 247 248 248 247 247 249 251 253 255 257 259 260 262 263 264 266 267 268 270 272 273 274 275 277 278 279 280 281 281 282 282 282 283 283 283 283 283 283 283 282 282
231 238 248 256 263 268 274 282 297 311 295 233 217 216 209 199 199 202 204 206 212 213 202 183 173 173 178 189 204 213 215 215 217 221 225 226 227 230 235 239 242 243 242 242 243 245 247 250 252 253 254 255 257 257 258 259 260 261 263 265 266 267 269 270 271 272 273 275 276 277 278 279 280 280 281 282 282 282 283 283 283 282 282 282 282 282 282
225 231 239 247 255 261 270 287 309 326 326 237 206 203 201 198 198 199 201 204 202 192 179 166 162 166 170 175 185 197 205 209 212 215 218 220 223 227 231 234 236 237 238 239 240 241 244 248 251 255 257 260 262 263 264 265 266 267 268 269 269 270 271 272 273 274 275 276 277 278 279 279 280 281 281 282 282 283 283 283 283 283 283 282 282 282 282
221 224 229 233 242 253 260 273 302 331 352 359 202 199 199 198 198 201 205 206 198 186 177 174 172 174 180 184 184 188 195 201 206 210 214 216 219 221 222 224 227 229 230 231 232 234 237 240 244 249 254 259 263 266 269 271 273 274 276 277 278 278 279 279 280 280 280 281 281 281 282 282 282 283 283 283 283 283 283 283 283 283 283 283 282 282 281
219 220 222 221 227 242 250 256 281 345 20 28 53 184 190 190 192 199 208 212 211 207 203 204 201 196 197 195 187 184 187 192 198 206 210 212 212 212 212 215 218 219 221 225 228 232 237 241 245 250 254 258 263 267 270 274 277 280 282 283 284 285 285 285 285 285 285 286 285 285 285 285 284 284 284 284 284 283 283 283 283 283 283 283 282 282 282
217 216 217 215 218 230 238 238 241 12 49 47 59 109 157 171 179 188 197 203 208 212 213 212 209 203 199 193 187 184 185 188 193 199 202 202 201 201 202 206 212 217 222 229 234 240 245 250 255 259 263 265 268 271 273 276 278 280 282 283 285 286 287 287 288 288 289 289 289 288 288 288 288 287 287 287 287 287 286 286 286 285 285 285 284 283 283
213 212 216 216 215 221 228 225 213 193 169 130 85 82 102 132 152 162 167 169 171 173 177 182 186 186 186 185 179 174 173 173 176 180 183 185 189 194 200 209 218 226 233 239 244 250 255 259 262 266 268 270 272 274 275 277 279 280 282 283 285 286 287 288 289 289 289 290 290 290 291 291 291 291 291 291 292 292 291 291 291 290 290 289 288 288 287
206 209 219 218 211 213 219 218 211 205 197 184 162 129 103 101 110 117 122 123 122 122 128 140 151 155 157 157 155 153 155 156 159 166 176 185 195 205 214 223 230 235 241 246 251 255 259 263 266 269 271 274 276 278 280 281 282 283 284 284 285 285 286 286 287 288 288 289 289 290 290 291 291 292 292 293 293 293 293 293 293 292 292 291 291 290 290
202 208 218 217 210 212 219 219 215 211 205 196 190 186 180 164 137 120 113 114 117 123 129 135 140 144 146 148 151 156 161 166 172 183 194 203 212 219 225 231 237 242 246 250 253 256 260 264 267 270 273 275 277 278 280 281 283 284 285 287 288 288 289 289 290 290 290 290 290 290 290 291 291 292 292 293 293 293 293 293 292 292 291 291 290 290 290
204 207 214 215 214 217 221 221 219 216 211 206 203 200 200 199 193 184 175 166 160 161 163 164 166 169 172 175 177 181 186 191 196 203 210 216 223 228 233 238 242 246 249 253 256 260 264 267 270 273 276 278 280 281 283 284 286 288 289 290 291 292 292 292 292 292 292 291 291 292 292 292 292 292 292 292 292 292 292 291 291 291 291 290 290 290 289
205 208 212 215 217 220 222 222 220 216 214 214 214 212 211 211 209 205 201 197 194 191 189 188 189 191 191 192 193 195 198 203 208 214 221 226 230 234 238 242 245 249 254 259 263 267 272 275 277 280 282 283 285 287 288 290 291 292 293 293 293 293 293 293 293 292 292 293 293 293 293 293 293 293 293 293 293 292 292 292 292 292 292 292 291 290 289
207 208 212 214 215 218 221 222 221 218 216 217 218 220 222 221 217 214 211 207 204 201 200 200 200 200 200 200 202 205 209 215 221 225 229 232 235 237 240 244 247 253 259 263 268 273 277 280 282 284 286 288 290 292 293 294 295 295 295 296 296 296 296 296 296 296 296 296 296 295 295 295 295 295 295 295 295 295 295 295 295 295 294 293 292 291 289
207 208 210 211 212 215 220 223 224 224 223 222 221 223 225 225 224 222 218 216 212 210 208 208 208 208 209 210 213 217 222 226 230 233 235 237 239 242 244 248 252 257 262 266 270 274 278 282 285 288 291 293 294 295 296 296 296 297 297 298 299 299 299 299 299 299 299 299 299 299 298 298 298 297 297 297 298 298 298 298 297 296 295 294 292 291 290
209 209 210 210 210 213 219 224 227 230 230 229 228 227 226 227 228 228 226 224 221 219 217 217 216 217 218 220 223 228 232 235 237 238 239 240 241 244 247 252 256 261 265 269 274 278 282 286 290 292 294 295 296 296 297 297 298 299 300 300 301 301 301 302 302 302 302 302 302 301 300 300 299 299 299 299 299 299 299 298 298 297 295 294 292 290 289
211 211 210 210 211 214 219 223 227 230 232 233 233 232 231 230 231 233 233 232 230 227 225 224 224 225 227 229 231 234 237 239 239 239 239 240 243 246 251 256 261 265 269 274 278 282 287 290 293 294 296 297 297 298 298 299 300 300 301 302 303 304 304 305 305 304 304 303 302 301 301 300 299 299 300 300 300 300 299 299 298 297 296 294 292 290 290
211 211 211 212 214 216 219 222 224 227 229 231 232 234 235 235 236 237 237 236 235 233 232 230 230 230 232 234 237 240 241 241 241 241 241 243 247 252 258 264 268 271 274 278 282 286 289 292 294 296 297 298 299 300 301 301 302 303 304 305 306 307 306 306 306 305 304 303 302 301 301 300 300 301 301 301 301 300 300 299 298 297 295 293 291 290 291
211 212 212 213 215 218 220 222 224 226 227 230 231 233 236 237 239 240 240 239 239 238 237 236 235 235 236 239 241 243 244 244 243 243 244 248 253 259 265 270 274 276 278 281 285 289 291 293 295 297 298 299 300 301 301 302 303 305 307 307 307 307 307 306 306 305 304 303 303 302 302 302 302 302 302 302 302 301 301 300 299 297 294 292 291 291 292
211 211 211 212 215 219 222 225 228 230 230 231 233 235 237 239 241 242 242 242 241 240 240 240 240 240 242 244 246 248 248 247 246 247 249 253 259 265 270 274 277 279 282 285 288 290 292 294 296 298 299 300 300 300 301 303 305 307 308 308 307 307 307 307 306 305 305 304 304 304 304 304 304 304 304 304 303 302 302 301 299 297 295 292 291 291 292
211 211 211 212 215 218 222 227 230 233 234 236 237 240 242 242 243 243 244 244 243 242 242 242 243 244 246 248 250 251 251 250 250 251 254 259 265 271 276 279 281 283 286 288 289 291 293 295 297 298 299 300 300 300 302 305 308 308 308 307 308 308 307 307 306 305 305 304 304 305 305 305 305 305 305 304 304 303 302 301 299 297 295 293 292 292 294
211 212 213 215 216 220 224 227 231 234 236 239 242 244 245 245 245 245 244 244 244 244 244 244 245 247 248 250 252 253 253 253 253 255 259 265 270 275 279 282 285 287 288 288 289 291 294 296 298 298 299 299 300 302 305 308 309 308 308 308 308 308 308 307 306 305 305 305 306 306 306 306 306 306 306 305 304 303 302 301 299 297 295 294 293 294 296
211 212 214 216 219 224 227 230 232 235 236 239 243 245 247 248 247 246 245 244 244 244 245 246 247 248 250 251 253 254 254 254 256 259 263 268 272 277 280 284 286 287 287 288 289 292 295 296 297 298 299 299 300 303 307 309 309 308 308 309 309 308 307 307 306 306 306 307 307 308 308 307 307 307 307 306 305 304 303 301 299 297 295 294 295 296 298
214 214 214 216 221 226 229 231 233 234 236 239 242 245 247 248 249 248 247 247 247 247 247 248 248 249 250 252 253 254 254 256 258 262 266 269 273 277 281 284 286 286 286 287 290 292 294 295 296 297 297 297 299 303 307 308 308 308 308 309 308 307 307 306 306 307 307 308 308 309 309 309 308 308 307 306 305 304 302 300 298 296 295 296 297 298 299
217 218 218 219 222 227 230 232 233 234 236 239 242 244 245 247 248 249 249 249 249 249 249 249 249 251 252 253 254 255 256 258 262 265 268 271 275 279 282 284 285 285 285 287 290 292 294 294 295 296 295 296 298 302 305 306 307 307 308 308 307 307 307 307 307 308 308 309 309 309 310 309 309 308 307 306 305 304 302 299 297 297 297 297 298 298 299
220 222 224 224 224 227 230 232 233 234 236 239 242 243 245 246 246 247 248 249 249 249 250 251 252 254 255 255 256 257 259 262 265 267 270 273 277 280 282 283 283 283 285 287 290 292 293 294 295 295 294 295 297 300 303 305 306 307 307 307 307 307 307 307 308 308 309 309 310 310 311 310 310 309 308 307 305 303 301 300 299 300 300 300 299 300 300
220 222 224 225 227 229 230 231 232 234 237 239 241 243 244 244 245 246 247 248 249 251 252 254 255 256 256 257 258 260 262 264 266 268 271 275 278 280 281 281 282 283 285 288 290 291 292 294 295 295 294 295 297 300 302 304 305 306 306 307 307 308 308 308 309 309 310 310 311 312 312 312 311 310 308 307 304 303 302 303 303 303 302 302 302 302 301
220 222 225 228 231 234 234 233 233 234 237 239 241 242 242 243 245 246 248 249 251 253 254 255 256 257 258 259 261 263 264 266 268 270 273 275 277 279 280 280 281 283 286 288 290 292 294 296 297 296 296 296 298 300 302 304 305 306 307 307 308 308 308 309 309 310 311 312 313 314 315 314 313 311 309 307 306 306 307 307 307 305 304 303 304 304 303
Height
5823 5824 5823 5823 5823 5823 5824 5826 5826 5828 5830 5832 5833 5834 5836 5838 5839 5839 5840 5841 5842 5843 5844 5844 5845 5846 5847 5848 5848 5849 5849 5850 5851 5850 5850 5851 5853 5855 5858 5862 5865 5869 5872 5876 5879 5882 5884 5886 5888 5890 5892 5894 5896 5898 5900 5902 5904 5906 5907 5909 5910 5911 5912 5914 5914 5915 5916 5917 5918 5918 5919 5920 5921 5923 5924 5925 5926 5927 5928 5928 5929 5930 5931 5932 5932 5933 5933
5821 5821 5821 5821 5821 5821 5821 5823 5823 5825 5827 5829 5831 5832 5834 5836 5837 5838 5839 5840 5841 5842 5843 5844 5844 5845 5846 5847 5847 5848 5848 5849 5849 5849 5848 5848 5849 5852 5855 5858 5862 5866 5869 5872 5876 5878 5881 5884 5886 5887 5889 5891 5892 5894 5896 5899 5901 5903 5905 5906 5908 5909 5910 5911 5911 5912 5913 5915 5916 5917 5918 5919 5920 5921 5921 5922 5923 5924 5925 5926 5927 5928 5928 5929 5930 5930 5930
5819 5819 5819 5819 5819 5819 5820 5820 5822 5823 5825 5826 5828 5829 5832 5834 5835 5837 5838 5838 5839 5841 5843 5844 5844 5843 5844 5845 5845 5846 5846 5846 5847 5847 5846 5845 5847 5849 5852 5854 5858 5861 5865 5868 5871 5875 5877 5880 5882 5884 5886 5888 5889 5891 5893 5896 5898 5900 5901 5903 5904 5906 5907 5908 5909 5910 5911 5913 5914 5915 5916 5918 5919 5920 5920 5921 5921 5922 5923 5923 5924 5925 5926 5926 5926 5926 5927
5817 5817 5817 5817 5817 5817 5818 5819 5820 5821 5823 5824 5825 5827 5829 5831 5833 5835 5836 5836 5837 5840 5841 5842 5842 5842 5842 5843 5843 5844 5844 5844 5844 5845 5845 5844 5845 5848 5850 5853 5855 5858 5861 5865 5868 5871 5874 5876 5878 5881 5884 5886 5888 5890 5892 5894 5896 5897 5898 5900 5901 5903 5904 5905 5906 5907 5908 5910 5911 5912 5914 5915 5915 5916 5918 5919 5919 5920 5920 5921 5921 5922 5922 5923 5923 5922 5923
5815 5814 5815 5815 5814 5815 5815 5815 5816 5817 5819 5821 5823 5825 5827 5828 5830 5832 5834 5834 5835 5837 5839 5839 5840 5840 5841 5841 5842 5842 5843 5843 5843 5844 5845 5844 5844 5846 5848 5851 5853 5855 5858 5861 5865 5868 5871 5874 5877 5879 5882 5884 5886 5889 5891 5892 5894 5895 5896 5897 5899 5900 5901 5902 5903 5904 5905 5906 5908 5909 5910 5911 5911 5912 5913 5915 5916 5916 5916 5916 5916 5917 5918 5919 5920 5920 5921
5813 5812 5812 5812 5812 5812 5811 5812 5813 5814 5816 5817 5819 5821 5824 5826 5828 5829 5831 5831 5832 5834 5836 5837 5838 5838 5840 5840 5840 5841 5842 5842 5842 5843 5844 5844 5843 5844 5845 5846 5849 5852 5855 5858 5862 5864 5867 5870 5873 5876 5879 5881 5884 5886 5888 5889 5891 5892 5893 5894 5896 5897 5897 5898 5899 5900 5901 5902 5904 5906 5907 5907 5908 5909 5909 5910 5910 5911 5911 5911 5911 5912 5913 5915 5916 5917 5917
5810 5809 5809 5809 5809 5808 5808 5808 5810 5811 5813 5814 5816 5819 5821 5824 5825 5826 5827 5828 5829 5831 5834 5835 5836 5837 5838 5839 5839 5839 5840 5840 5840 5839 5841 5842 5841 5840 5840 5841 5844 5847 5850 5854 5857 5860 5863 5866 5869 5872 5875 5877 5879 5881 5883 5885 5886 5887 5889 5890 5892 5893 5894 5895 5896 5897 5898 5899 5901 5902 5903 5904 5905 5906 5906 5906 5907 5907 5908 5908 5907 5908 5909 5910 5911 5912 5913
5808 5807 5807 5806 5806 5805 5805 5806 5807 5808 5810 5812 5813 5816 5818 5820 5822 5823 5824 5825 5827 5829 5831 5833 5835 5836 5836 5836 5837 5838 5838 5838 5838 5837 5837 5838 5838 5838 5838 5838 5840 5842 5846 5850 5854 5857 5859 5862 5865 5868 5871 5873 5875 5877 5879 5881 5882 5884 5885 5887 5888 5890 5891 5892 5893 5893 5895 5895 5897 5899 5901 5902 5902 5902 5902 5903 5903 5904 5905 5904 5904 5905 5905 5905 5906 5907 5908
5805 5804 5804 5804 5803 5803 5803 5803 5804 5806 5808 5809 5810 5812 5814 5816 5818 5819 5821 5822 5824 5826 5828 5831 5832 5834 5834 5834 5835 5837 5837 5837 5837 5836 5836 5836 5838 5838 5838 5838 5840 5842 5846 5849 5852 5854 5857 5859 5861 5864 5867 5869 5871 5873 5875 5877 5878 5880 5882 5884 5885 5885 5886 5887 5888 5888 5889 5891 5892 5894 5896 5897 5898 5898 5898 5898 5898 5900 5901 5901 5901 5902 5902 5902 5902 5903 5904
5802 5802 5801 5801 5801 5801 5801 5801 5802 5804 5805 5806 5808 5809 5811 5812 5814 5815 5817 5819 5821 5823 5826 5828 5830 5831 5832 5833 5833 5835 5836 5836 5836 5836 5836 5836 5838 5838 5838 5839 5841 5843 5846 5848 5850 5852 5853 5855 5857 5860 5862 5865 5868 5870 5872 5873 5875 5877 5879 5880 5881 5881 5882 5883 5883 5883 5884 5886 5887 5889 5890 5892 5894 5894 5894 5893 5892 5894 5897 5898 5898 5898 5899 5900 5900 5900 5901
5800 5800 5799 5800 5800 5799 5799 5799 5800 5802 5803 5804 5805 5806 5807 5809 5811 5812 5814 5816 5818 5821 5823 5825 5826 5828 5830 5831 5831 5832 5834 5834 5835 5835 5835 5836 5837 5838 5839 5840 5841 5842 5845 5847 5849 5850 5851 5853 5854 5857 5859 5862 5865 5867 5869 5870 5872 5874 5876 5877 5878 5878 5879 5879 5879 5879 5880 5881 5882 5883 5884 5887 5888 5888 5889 5888 5888 5889 5891 5893 5894 5895 5895 5896 5896 5896 5897
5797 5797 5797 5798 5798 5797 5797 5798 5799 5800 5801 5802 5803 5804 5805 5806 5808 5809 5811 5813 5815 5818 5820 5822 5823 5826 5828 5829 5829 5830 5832 5832 5833 5834 5835 5836 5837 5838 5839 5839 5840 5841 5844 5847 5849 5849 5850 5852 5854 5856 5858 5860 5862 5864 5866 5867 5869 5871 5872 5873 5875 5876 5875 5874 5874 5874 5875 5875 5876 5877 5879 5880 5880 5881 5883 5883 5882 5883 5886 5888 5889 5889 5889 5890 5891 5892 5894
5795 5795 5795 5795 5795 5795 5795 5796 5796 5798 5799 5800 5800 5801 5802 5804 5805 5806 5808 5810 5812 5814 5817 5819 5820 5823 5825 5826 5827 5828 5830 5830 5831 5832 5834 5835 5836 5837 5838 5839 5839 5840 5842 5844 5845 5846 5848 5850 5853 5855 5857 5858 5860 5862 5863 5865 5866 5868 5869 5870 5871 5873 5871 5869 5869 5870 5871 5870 5870 5870 5872 5872 5872 5874 5875 5875 5876 5878 5881 5883 5883 5883 5884 5886 5887 5889 5890
5793 5793 5793 5793 5793 5793 5793 5793 5794 5796 5797 5797 5797 5797 5798 5800 5802 5804 5805 5807 5809 5811 5813 5815 5817 5820 5823 5824 5825 5826 5827 5828 5829 5830 5832 5834 5834 5835 5837 5838 5839 5840 5840 5842 5843 5844 5846 5848 5850 5852 5854 5856 5858 5860 5861 5862 5863 5864 5865 5866 5868 5869 5867 5865 5865 5866 5866 5865 5865 5865 5865 5866 5866 5867 5868 5869 5871 5874 5876 5878 5878 5879 5880 5882 5883 5884 5886
5791 5791 5790 5790 5790 5790 5790 5791 5792 5793 5794 5794 5795 5795 5796 5798 5799 5800 5802 5804 5806 5808 5810 5812 5814 5817 5820 5822 5823 5824 5825 5826 5828 5829 5831 5832 5833 5834 5836 5837 5838 5838 5839 5840 5842 5844 5846 5847 5849 5850 5852 5854 5855 5857 5858 5859 5860 5861 5862 5863 5864 5864 5864 5863 5863 5863 5863 5862 5861 5862 5862 5862 5863 5863 5863 5864 5866 5869 5872 5873 5874 5875 5876 5878 5879 5880 5881
5788 5788 5788 5788 5788 5787 5787 5788 5789 5790 5791 5791 5792 5793 5794 5795 5796 5797 5799 5801 5803 5805 5807 5809 5812 5815 5817 5820 5821 5822 5823 5825 5826 5828 5830 5831 5832 5833 5834 5836 5837 5837 5838 5839 5841 5843 5844 5846 5848 5849 5851 5852 5853 5855 5855 5856 5857 5858 5859 5860 5860 5861 5861 5861 5861 5860 5860 5860 5860 5860 5860 5860 5861 5861 5860 5860 5862 5865 5868 5870 5871 5871 5872 5874 5875 5875 5876
5785 5786 5785 5785 5785 5785 5785 5785 5786 5787 5787 5789 5790 5790 5791 5792 5793 5794 5796 5798 5800 5802 5804 5806 5809 5812 5815 5817 5819 5820 5821 5823 5825 5826 5828 5829 5831 5832 5833 5834 5835 5836 5837 5838 5840 5842 5843 5844 5845 5847 5849 5850 5851 5852 5853 5853 5854 5855 5855 5856 5857 5858 5858 5858 5858 5858 5858 5858 5858 5858 5858 5859 5860 5860 5860 5861 5862 5864 5866 5867 5868 5869 5869 5870 5870 5871 5871
5782 5782 5782 5782 5782 5782 5782 5783 5783 5783 5784 5785 5786 5787 5788 5788 5789 5791 5793 5794 5796 5798 5801 5802 5805 5808 5811 5813 5816 5818 5819 5821 5822 5824 5826 5827 5829 5830 5832 5833 5834 5835 5836 5837 5839 5840 5841 5842 5843 5845 5846 5847 5848 5849 5850 5850 5851 5851 5852 5853 5853 5854 5855 5855 5856 5856 5856 5857 5857 5857 5857 5858 5859 5860 5860 5860 5861 5862 5863 5863 5864 5865 5865 5866 5866 5867 5867
5779 5780 5780 5779 5779 5780 5780 5780 5780 5780 5781 5781 5782 5783 5784 5785 5786 5787 5789 5791 5793 5794 5797 5799 5802 5804 5806 5809 5812 5815 5817 5818 5820 5822 5824 5825 5827 5829 5830 5832 5833 5834 5835 5835 5837 5838 5839 5840 5841 5843 5844 5845 5846 5847 5847 5848 5848 5849 5849 5850 5851 5851 5852 5852 5853 5854 5854 5855 5855 5856 5856 5856 5857 5858 5858 5858 5859 5859 5860 5860 5861 5862 5862 5863 5863 5863 5864
5776 5777 5777 5776 5776 5776 5777 5777 5777 5777 5778 5778 5779 5779 5780 5781 5782 5783 5785 5787 5789 5791 5793 5796 5798 5800 5802 5804 5806 5809 5812 5814 5817 5819 5821 5823 5825 5827 5828 5830 5831 5832 5834 5834 5835 5837 5838 5839 5840 5841 5842 5843 5844 5845 5845 5846 5846 5846 5847 5848 5848 5849 5849 5850 5851 5851 5851 5852 5853 5854 5854 5855 5855 5855 5856 5857 5857 5858 5858 5858 5859 5859 5860 5860 5860 5861 5861
5774 5774 5774 5773 5773 5773 5773 5774 5774 5773 5774 5774 5774 5775 5775 5776 5777 5779 5781 5783 5785 5787 5789 5791 5793 5797 5800 5802 5804 5806 5808 5810 5812 5814 5816 5819 5821 5823 5825 5827 5828 5830 5831 5833 5834 5835 5837 5837 5838 5839 5840 5841 5842 5843 5843 5844 5844 5845 5845 5846 5846 5847 5847 5848 5848 5849 5849 5850 5850 5851 5852 5852 5853 5853 5854 5854 5855 5855 5855 5856 5856 5856 5857 5857 5857 5857 5858
5771 5771 5771 5770 5770 5770 5770 5770 5770 5770 5770 5770 5770 5770 5770 5771 5773 5775 5777 5779 5781 5783 5785 5787 5789 5793 5796 5799 5802 5804 5807 5809 5810 5811 5813 5815 5817 5820 5821 5823 5825 5827 5828 5830 5832 5833 5834 5835 5836 5837 5838 5839 5839 5840 5841 5842 5842 5843 5844 5844 5845 5845 5846 5846 5846 5846 5846 5846 5847 5847 5848 5848 5849 5850 5850 5851 5851 5852 5852 5852 5853 5853 5853 5853 5853 5853 5853
5768 5768 5768 5768 5768 5768 5767 5767 5767 5766 5766 5766 5766 5766 5766 5767 5769 5771 5772 5774 5777 5779 5781 5784 5787 5790 5793 5796 5798 5801 5805 5807 5809 5810 5812 5813 5814 5816 5818 5820 5822 5824 5825 5827 5829 5830 5832 5832 5833 5834 5835 5836 5837 5837 5838 5839 5840 5841 5841 5842 5843 5843 5843 5844 5844 5844 5844 5844 5844 5844 5844 5844 5845 5846 5846 5847 5847 5847 5848 5848 5848 5848 5848 5848 5848 5848 5848
5766 5766 5766 5766 5766 5765 5765 5764 5764 5764 5763 5762 5761 5762 5762 5763 5765 5767 5768 5770 5773 5776 5779 5781 5784 5787 5790 5793 5795 5798 5802 5804 5806 5808 5809 5810 5811 5813 5815 5817 5819 5821 5823 5824 5826 5827 5829 5830 5831 5831 5832 5833 5834 5835 5836 5837 5837 5838 5839 5839 5840 5840 5840 5841 5841 5841 5841 5841 5841 5841 5841 5841 5841 5842 5842 5843 5843 5843 5843 5844 5843 5843 5844 5843 5843 5843 5843
5764 5764 5764 5763 5763 5763 5762 5762 5762 5761 5759 5757 5756 5757 5759 5760 5762 5763 5765 5768 5771 5774 5776 5778 5781 5784 5786 5789 5792 5794 5797 5800 5802 5805 5806 5808 5809 5811 5813 5815 5817 5819 5820 5822 5823 5824 5825 5826 5827 5828 5829 5830 5831 5832 5833 5834 5835 5835 5836 5836 5837 5837 5837 5838 5838 5838 5838 5838 5838 5838 5838 5838 5838 5838 5838 5838 5838 5839 5839 5839 5839 5839 5838 5838 5838 5837 5837
5762 5762 5762 5761 5761 5760 5760 5759 5759 5758 5756 5754 5753 5754 5756 5758 5759 5761 5763 5765 5769 5772 5774 5776 5779 5781 5783 5785 5788 5791 5793 5796 5798 5801 5804 5805 5807 5809 5811 5813 5815 5816 5818 5819 5820 5821 5822 5823 5824 5825 5826 5827 5828 5828 5829 5830 5831 5832 5833 5833 5834 5834 5834 5835 5835 5835 5835 5835 5835 5835 5835 5835 5835 5835 5834 5834 5834 5834 5834 5834 5834 5833 5833 5833 5832 5832 5831
5760 5760 5760 5760 5759 5759 5758 5757 5756 5755 5753 5752 5752 5752 5753 5755 5757 5759 5761 5764 5767 5769 5771 5773 5775 5778 5780 5782 5785 5787 5790 5792 5795 5798 5800 5803 5805 5807 5808 5810 5812 5813 5815 5816 5817 5818 5819 5820 5821 5822 5823 5824 5825 5825 5826 5827 5828 5829 5830 5830 5831 5831 5831 5831 5832 5832 5832 5832 5832 5832 5831 5831 5831 5831 5831 5830 5830 5830 5829 5829 5828 5828 5828 5827 5827 5826 5826
5758 5758 5758 5758 5758 5758 5757 5755 5754 5753 5752 5751 5751 5751 5752 5754 5756 5758 5760 5763 5766 5767 5768 5769 5770 5771 5773 5776 5779 5782 5785 5788 5791 5794 5797 5800 5802 5804 5806 5807 5809 5810 5812 5813 5814 5816 5817 5818 5819 5819 5820 5821 5822 5823 5824 5824 5825 5826 5827 5827 5828 5828 5828 5828 5828 5829 5829 5829 5829 5828 5828 5828 5828 5827 5827 5826 5826 5825 5825 5824 5824 5823 5823 5822 5821 5820 5819
5756 5756 5757 5757 5757 5757 5756 5754 5753 5752 5751 5749 5749 5750 5752 5753 5756 5757 5760 5763 5764 5765 5766 5768 5769 5769 5770 5772 5774 5777 5781 5785 5789 5792 5795 5798 5800 5802 5803 5805 5806 5808 5809 5811 5812 5813 5814 5815 5816 5817 5817 5818 5819 5820 5821 5821 5822 5823 5823 5824 5824 5824 5825 5825 5825 5825 5825 5825 5825 5825 5824 5824 5824 5823 5823 5822 5822 5821 5820 5819 5818 5817 5817 5816 5815 5814 5813
5754 5754 5755 5756 5756 5756 5756 5755 5754 5753 5751 5749 5748 5749 5751 5753 5755 5757 5759 5761 5762 5763 5765 5767 5770 5771 5773 5774 5775 5777 5780 5784 5788 5791 5794 5796 5798 5799 5801 5803 5804 5806 5807 5809 5810 5811 5812 5813 5814 5815 5815 5816 5817 5817 5818 5818 5819 5819 5820 5820 5820 5820 5821 5821 5821 5821 5821 5821 5821 5821 5820 5820 5820 5819 5818 5817 5817 5816 5815 5814 5813 5811 5810 5809 5808 5807 5806
5751 5752 5753 5754 5755 5756 5755 5755 5754 5753 5752 5750 5750 5750 5750 5752 5754 5756 5758 5760 5761 5763 5765 5767 5769 5771 5774 5775 5776 5778 5780 5783 5786 5789 5791 5794 5795 5797 5799 5801 5802 5804 5806 5807 5808 5809 5810 5811 5812 5812 5813 5814 5815 5815 5815 5816 5816 5816 5816 5816 5816 5816 5816 5816 5816 5816 5816 5816 5816 5816 5815 5815 5814 5814 5813 5812 5811 5810 5809 5808 5807 5805 5804 5802 5801 5799 5798
5749 5751 5752 5753 5754 5755 5755 5755 5755 5754 5753 5752 5752 5751 5751 5752 5753 5755 5757 5759 5760 5762 5764 5766 5768 5770 5773 5775 5776 5777 5779 5782 5784 5787 5789 5791 5793 5795 5797 5799 5801 5802 5804 5805 5806 5807 5807 5808 5809 5810 5810 5811 5812 5812 5813 5813 5813 5813 5813 5813 5813 5812 5812 5812 5812 5811 5811 5811 5810 5809 5809 5808 5808 5807 5806 5805 5804 5803 5802 5801 5799 5798 5796 5795 5792 5790 5790
5747 5749 5751 5752 5753 5753 5754 5755 5755 5754 5754 5753 5753 5753 5753 5754 5754 5755 5756 5758 5760 5761 5763 5765 5767 5769 5771 5773 5775 5776 5778 5780 5783 5785 5788 5790 5792 5794 5796 5797 5799 5800 5801 5802 5803 5804 5805 5805 5806 5807 5807 5808 5808 5809 5809 5810 5810 5810 5810 5810 5809 5809 5808 5808 5807 5807 5806 5805 5804 5803 5802 5802 5801 5800 5799 5797 5796 5795 5793 5792 5791 5789 5787 5786 5783 5781 5780
5746 5748 5749 5750 5751 5753 5754 5754 5754 5754 5754 5754 5754 5754 5755 5755 5756 5757 5758 5759 5760 5761 5763 5765 5768 5769 5771 5773 5774 5776 5778 5780 5782 5785 5787 5789 5791 5793 5794 5796 5797 5798 5799 5800 5801 5801 5802 5802 5803 5804 5804 5805 5805 5805 5806 5806 5806 5806 5806 5805 5805 5805 5804 5804 5803 5802 5801 5800 5799 5798 5797 5796 5794 5793 5792 5790 5789 5787 5785 5784 5782 5780 5778 5776 5773 5771 5770
5744 5745 5746 5748 5750 5751 5752 5753 5754 5754 5755 5755 5755 5755 5756 5757 5758 5759 5759 5760 5761 5763 5764 5766 5768 5770 5771 5773 5774 5776 5778 5780 5782 5784 5786 5788 5789 5791 5792 5793 5795 5796 5797 5797 5798 5799 5799 5800 5801 5801 5802 5802 5802 5803 5803 5802 5802 5802 5801 5801 5800 5799 5799 5798 5797 5796 5795 5794 5793 5792 5791 5789 5788 5787 5785 5783 5782 5780 5778 5776 5774 5772 5770 5767 5765 5762 5760
5741 5742 5744 5746 5748 5750 5751 5752 5753 5754 5755 5755 5756 5757 5757 5758 5759 5760 5761 5762 5763 5764 5765 5767 5768 5770 5772 5773 5775 5776 5778 5779 5781 5783 5785 5786 5788 5789 5790 5791 5792 5793 5794 5795 5795 5796 5797 5797 5798 5798 5799 5799 5799 5799 5799 5798 5798 5797 5797 5796 5795 5794 5793 5792 5791 5790 5789 5788 5787 5785 5784 5782 5781 5779 5778 5776 5774 5772 5770 5768 5766 5763 5761 5758 5755 5753 5750
5739 5741 5742 5744 5746 5748 5749 5751 5752 5753 5755 5755 5756 5757 5758 5759 5759 5760 5761 5762 5763 5764 5766 5767 5769 5770 5772 5773 5774 5776 5777 5779 5780 5782 5783 5785 5786 5787 5788 5789 5790 5790 5791 5792 5793 5793 5794 5794 5794 5795 5795 5795 5795 5794 5794 5794 5793 5792 5791 5791 5790 5789 5788 5787 5786 5784 5783 5782 5780 5779 5777 5775 5773 5771 5769 5767 5765 5763 5761 5758 5756 5753 5750 5747 5745 5742 5739
5737 5739 5740 5742 5744 5746 5748 5749 5751 5752 5753 5755 5756 5757 5758 5759 5759 5760 5761 5762 5763 5765 5766 5767 5769 5770 5772 5773 5774 5775 5777 5778 5779 5780 5781 5782 5783 5784 5785 5786 5787 5788 5789 5789 5790 5790 5791 5791 5791 5791 5791 5791 5790 5790 5789 5788 5787 5787 5786 5785 5784 5782 5781 5780 5779 5777 5776 5774 5773 5771 5769 5767 5765 5762 5760 5757 5755 5752 5750 5747 5745 5742 5739 5736 5733 5730 5728
5734 5736 5738 5740 5742 5744 5746 5747 5749 5750 5752 5753 5754 5755 5756 5758 5759 5760 5761 5762 5763 5764 5766 5767 5768 5770 5771 5772 5773 5774 5776 5777 5778 5779 5779 5780 5781 5782 5783 5784 5785 5786 5786 5787 5787 5788 5788 5788 5787 5787 5787 5786 5786 5785 5784 5783 5782 5781 5780 5779 5777 5776 5775 5773 5771 5770 5768 5766 5764 5762 5760 5758 5755 5752 5750 5747 5745 5742 5739 5736 5734 5731 5728 5725 5722 5719 5716
5732 5734 5736 5738 5740 5742 5744 5745 5747 5748 5749 5751 5752 5753 5755 5756 5757 5758 5760 5761 5762 5763 5764 5765 5767 5768 5769 5771 5772 5773 5774 5775 5776 5777 5778 5778 5779 5780 5781 5782 5783 5783 5784 5784 5784 5784 5784 5784 5784 5783 5783 5782 5781 5780 5780 5779 5777 5776 5775 5773 5772 5770 5769 5767 5765 5763 5761 5759 5756 5754 5752 5749 5746 5744 5741 5738 5735 5732 5729 5726 5723 5721 5718 5715 5712 5709 5706
5729 5731 5734 5736 5738 5740 5742 5743 5745 5746 5748 5749 5750 5751 5753 5754 5755 5757 5758 5759 5760 5762 5763 5764 5765 5766 5768 5769 5770 5771 5772 5773 5774 5775 5776 5776 5777 5778 5779 5780 5780 5781 5781 5781 5781 5780 5780 5780 5779 5779 5778 5777 5776 5775 5774 5773 5772 5771 5769 5768 5766 5764 5762 5760 5758 5756 5754 5751 5749 5747 5744 5741 5738 5736 5733 5729 5726 5723 5720 5716 5713 5711 5708 5705 5702 5700 5697
5727 5729 5732 5734 5735 5738 5740 5742 5743 5745 5746 5747 5748 5750 5751 5752 5753 5755 5756 5757 5758 5760 5761 5762 5763 5765 5766 5767 5768 5769 5770 5770 5771 5772 5773 5774 5775 5775 5776 5776 5777 5777 5777 5777 5776 5776 5776 5775 5775 5774 5773 5772 5771 5770 5768 5767 5766 5765 5763 5761 5760 5758 5756 5754 5752 5749 5747 5744 5742 5739 5736 5733 5730 5727 5724 5721 5717 5714 5711 5708 5704 5702 5699 5696 5694 5692 5689
5725 5727 5729 5732 5734 5736 5738 5740 5742 5743 5745 5746 5747 5748 5749 5750 5752 5753 5754 5755 5756 5757 5759 5760 5761 5762 5763 5764 5765 5766 5767 5768 5769 5769 5770 5771 5771 5772 5772 5773 5773 5773 5772 5772 5772 5772 5771 5770 5770 5769 5768 5767 5765 5764 5763 5762 5760 5759 5757 5755 5753 5752 5749 5747 5744 5742 5739 5736 5734 5731 5728 5725 5721 5718 5715 5712 5709 5706 5703 5700 5696 5693 5690 5688 5686 5684 5681
5723 5725 5727 5730 5732 5734 5736 5738 5740 5741 5743 5744 5745 5746 5748 5749 5749 5750 5751 5753 5754 5755 5756 5757 5758 5760 5761 5761 5762 5763 5764 5765 5766 5766 5767 5768 5768 5768 5769 5769 5769 5768 5768 5768 5767 5767 5766 5766 5765 5764 5762 5761 5760 5759 5757 5756 5754 5753 5751 5749 5747 5745 5743 5740 5737 5734 5731 5729 5726 5722 5719 5716 5713 5710 5707 5704 5700 5697 5694 5691 5688 5685 5682 5680 5678 5675 5673
5721 5723 5726 5728 5730 5732 5734 5736 5737 5739 5740 5742 5743 5744 5745 5746 5747 5748 5749 5750 5751 5752 5753 5754 5756 5757 5758 5758 5759 5760 5761 5762 5762 5763 5763 5764 5764 5764 5764 5764 5764 5764 5764 5763 5763 5762 5761 5760 5759 5758 5757 5755 5754 5753 5752 5750 5748 5746 5745 5743 5741 5738 5736 5733 5730 5727 5725 5722 5719 5715 5712 5709 5706 5702 5699 5696 5692 5689 5686 5683 5679 5676 5674 5671 5669 5667 5665
5719 5722 5724 5726 5728 5730 5732 5733 5735 5736 5738 5739 5740 5741 5742 5743 5744 5745 5746 5747 5748 5750 5751 5752 5753 5754 5755 5755 5756 5757 5758 5758 5759 5759 5760 5760 5760 5760 5760 5760 5760 5759 5759 5759 5758 5757 5756 5755 5753 5752 5751 5750 5749 5747 5746 5744 5742 5741 5739 5737 5734 5732 5729 5726 5724 5721 5718 5715 5711 5708 5705 5702 5698 5695 5692 5688 5685 5681 5678 5675 5672 5669 5666 5663 5661 5659 5657
5718 5720 5722 5724 5726 5728 5729 5731 5733 5734 5735 5737 5738 5738 5739 5740 5741 5742 5744 5745 5746 5747 5748 5749 5750 5751 5752 5752 5753 5754 5754 5755 5755 5756 5756 5756 5757 5757 5757 5756 5756 5755 5755 5754 5753 5752 5751 5749 5748 5747 5746 5745 5743 5742 5740 5738 5736 5734 5732 5730 5727 5725 5722 5719 5717 5714 5711 5707 5704 5701 5698 5694 5691 5688 5684 5681 5677 5674 5671 5667 5664 5662 5659 5656 5654 5651 5649
5716 5718 5720 5722 5724 5726 5727 5729 5730 5732 5733 5734 5735 5736 5737 5738 5739 5740 5741 5742 5743 5744 5745 5746 5747 5748 5748 5749 5750 5751 5751 5752 5752 5752 5753 5753 5753 5753 5753 5752 5752 5751 5750 5749 5748 5747 5746 5745 5743 5742 5741 5740 5738 5736 5734 5732 5730 5728 5726 5723 5721 5718 5716 5713 5710 5707 5704 5701 5698 5695 5691 5688 5684 5681 5677 5673 5670 5666 5663 5660 5657 5655 5653 5650 5647 5645 5642
5715 5717 5719 5720 5722 5724 5726 5727 5728 5729 5730 5731 5732 5733 5734 5735 5736 5737 5738 5739 5740 5741 5742 5743 5744 5744 5745 5746 5747 5747 5748 5748 5749 5749 5749 5749 5749 5749 5749 5748 5747 5746 5746 5744 5743 5742 5741 5740 5738 5737 5736 5734 5733 5731 5729 5727 5725 5722 5720 5718 5715 5713 5710 5707 5704 5701 5698 5695 5692 5689 5685 5681 5678 5674 5670 5666 5662 5659 5656 5653 5651 5648 5646 5644 5642 5639 5636
5714 5716 5717 5719 5721 5722 5724 5725 5726 5727 5727 5728 5729 5730 5731 5732 5733 5734 5735 5736 5737 5738 5739 5740 5740 5741 5742 5743 5743 5744 5744 5745 5745 5745 5745 5745 5745 5745 5744 5744 5743 5742 5741 5740 5739 5737 5736 5735 5733 5732 5730 5729 5727 5725 5723 5721 5719 5717 5714 5712 5709 5707 5704 5701 5699 5696 5693 5689 5686 5683 5679 5675 5671 5667 5663 5659 5655 5652 5649 5647 5644 5642 5640 5638 5636 5633 5631
5712 5714 5715 5717 5718 5719 5720 5722 5723 5724 5725 5726 5727 5728 5729 5730 5731 5732 5732 5733 5734 5735 5736 5736 5737 5738 5739 5739 5740 5740 5741 5741 5741 5741 5741 5741 5741 5740 5740 5739 5738 5737 5736 5735 5734 5733 5731 5730 5728 5727 5725 5723 5722 5720 5718 5716 5713 5711 5709 5706 5704 5701 5699 5696 5693 5690 5687 5684 5680 5676 5673 5668 5664 5660 5656 5653 5650 5647 5644 5641 5639 5637 5634 5632 5630 5628 5626
5710 5712 5713 5715 5716 5717 5718 5719 5720 5721 5722 5723 5724 5725 5726 5727 5728 5729 5730 5731 5731 5732 5733 5734 5734 5735 5735 5736 5736 5737 5737 5737 5737 5737 5737 5737 5736 5736 5735 5734 5733 5732 5731 5730 5729 5728 5726 5725 5723 5721 5719 5718 5716 5714 5712 5710 5708 5705 5703 5701 5698 5696 5693 5690 5688 5685 5681 5678 5674 5670 5666 5662 5657 5653 5650 5647 5645 5642 5640 5637 5634 5632 5629 5627 5625 5623 5620